Location: General Nathan Twining Observatory
(34.5931°N, 106.8201°W)
Time: 20:05:48
(UTC-06:00)

Daily predictions for brighter satellites

Satellite Brightness Start Highest point End
(mag) Time Altitude Azimuth Time Altitude Azimuth Time Altitude Azimuth
Cosmos 494 Rocket 4.0 20:32:35 10° S 20:37:37 62° ESE 20:42:40 10° NNE
FengYun 1-2 T 4.5 20:36:08 10° S 20:41:37 74° WSW 20:47:07 10° NNW
Cosmos 1025 Rocket 3.2 20:39:29 10° S 20:43:52 79° W 20:48:16 10° N
Cosmos 2228 4.3 20:41:01 10° NNE 20:44:42 25° ENE 20:48:22 10° SE
Meteor 2-4 Rocket 3.9 20:39:10 10° S 20:44:52 58° E 20:50:40 10° NNE
Cosmos 2333 Rocket 4.4 20:40:39 10° SW 20:45:38 32° WNW 20:50:40 10° N
FENGYUN 3A 3.7 20:42:46 10° SSE 20:48:05 70° ENE 20:53:27 10° N
Cosmos 2297 3.8 20:43:57 10° NNW 20:49:39 67° ENE 20:55:20 10° SSE
Delta 168 4.2 20:47:43 10° SW 20:50:07 18° SSE 20:52:53 10° SE
Resurs 01 Rocket 4.0 20:47:42 10° SSW 20:51:16 23° W 20:54:51 10° NW
Meteor 1-19 Rocket 4.3 20:45:54 10° S 20:51:31 88° W 20:57:08 10° N
H-2A R/B 2.8 20:48:39 10° SSE 20:52:35 75° ENE 20:56:33 10° N
Okean 2 3.5 20:50:34 10° S 20:54:40 60° E 20:58:48 10° NNE
Cosmos 1892 Rocket 3.7 20:52:07 10° S 20:56:32 85° W 21:01:02 10° N
Aureole 2 Rocket 2.6 20:54:09 10° S 20:58:10 73° ESE 21:01:51 10° NNE
GEOS 3 Rocket 3.7 20:55:38 10° SE 21:00:52 69° NE 21:06:05 10° NNW
USA 186 2.4 21:04:44 10° S 21:07:34 48° W 21:10:14 10° NNW
OAO 3 Copernicus 4.3 21:02:50 10° W 21:07:53 80° SSW 21:12:17 14° ESE
SeaSat 1 3.9 21:04:20 11° ESE 21:07:54 23° NE 21:11:42 10° N
CZ-2C R/B 0.4 21:06:17 15° SSE 21:08:00 62° ENE 21:10:17 10° N
Cosmos 1331 Rocket 4.0 21:02:53 10° NNW 21:08:06 89° ENE 21:13:15 10° SSE
Milstar 3 Cent rocket 3.5 21:04:32 10° W 21:12:25 36° SSW 21:16:22 15° SE
Cosmos 1302 Rocket 4.1 21:13:54 10° N 21:19:06 64° ENE 21:23:15 16° SSE
CZ-4B R/B 4.5 21:15:00 10° NE 21:19:19 27° E 21:22:07 17° SE
Cosmos 1726 Rocket 4.4 21:18:26 10° NNW 21:22:44 51° W 21:26:59 10° SSW
Cosmos 1461 3.4 21:19:55 10° NNW 21:24:00 44° ENE 21:26:14 22° ESE
SJ-11-01 4.2 21:23:04 12° SSE 21:27:22 90° ESE 21:32:04 10° NNW
Cosmos 2278 Rocket 4.1 21:23:33 10° NW 21:28:10 26° WSW 21:32:46 10° SSW
Cosmos 1513 Rocket 4.4 21:27:12 10° N 21:33:30 83° E 21:39:05 13° S
Tsikada Rocket 4.0 21:28:44 10° S 21:35:06 72° E 21:41:28 10° N
ATLAS 3B R/B 3.3 21:28:38 10° S 21:35:39 40° ESE 21:42:37 10° NE
Abrixas rocket 2.2 21:34:35 10° NW 21:38:01 88° NE 21:39:14 37° SE
Cosmos 1666 2.9 21:34:15 10° NNW 21:38:08 71° W 21:41:00 17° S
Cosmos 1602 Rocket 3.6 21:34:44 10° S 21:39:12 81° W 21:43:42 10° N
Cosmos 2058 Rocket 4.2 21:35:11 10° NNW 21:39:18 42° W 21:43:24 10° SSW
Cosmos 2369 Rocket 3.7 21:36:40 10° N 21:41:02 23° ENE 21:43:28 17° E
ERS-1 Rocket 3.5 21:37:02 10° S 21:41:53 58° W 21:46:50 10° NNW
Cosmos 1825 Rocket 4.4 21:43:05 29° ESE 21:44:03 32° E 21:48:00 10° NNE
APEX 4.0 21:39:49 10° NNW 21:44:11 70° WSW 21:47:58 21° S
ISS -2.4 21:43:51 10° WSW 21:47:01 51° NW 21:50:13 10° NE
Atlas Centaur 2 3.0 21:41:17 10° WSW 21:48:36 61° S 21:55:21 17° E
Envisat 2.9 21:45:44 23° SSE 21:48:54 82° ENE 21:54:00 10° N
MetOp-B 4.3 21:48:21 28° SE 21:50:59 55° ENE 21:56:13 10° N
Cosmos 407 Rocket 4.3 21:51:27 30° ESE 21:52:16 31° E 21:56:51 10° NE
USA 234 4.1 21:48:30 17° E 21:53:03 40° NE 21:59:03 10° NNW
Cosmos 1812 Rocket 3.5 21:49:13 10° N 21:53:36 72° E 21:55:23 35° SSE
Cosmos 1939 Rocket 3.4 21:52:35 22° S 21:55:06 60° W 21:59:13 10° NNW
GRACE-1 4.4 21:52:52 10° N 21:55:42 59° W 21:56:21 44° SW
GRACE-2 4.4 21:53:19 10° N 21:56:09 59° W 21:56:46 44° SW
CZ-4 R/B 4.2 21:57:18 10° NNE 22:02:09 48° E 22:03:32 38° SE
H-2A R/B 3.4 21:59:32 14° SSW 22:02:41 35° W 22:06:40 10° NNW
Cosmos 1515 3.6 22:03:51 45° S 22:04:59 86° E 22:08:51 10° N
CZ-4 SHROUD 3.8 22:04:33 44° SW 22:05:07 53° W 22:08:13 10° NNW
SPOT 5 2.7 22:04:13 34° S 22:06:07 74° WSW 22:10:27 10° NNW
USA 245 4.4 22:05:54 35° SE 22:08:23 61° ENE 22:13:39 10° N
COSMOS 2455 3.4 22:06:32 10° SW 22:12:27 59° WNW 22:18:23 10° NNE
YAOGAN 6 2.5 22:14:15 70° E 22:14:22 71° ENE 22:18:06 10° N
Cosmos 1066 Rocket 4.2 22:11:54 33° S 22:14:29 72° E 22:20:15 10° NNE
USA 81 4.0 22:11:43 10° N 22:16:59 67° E 22:18:24 47° SSE
Cosmos 1634 Rocket 4.0 22:11:09 10° N 22:17:17 62° E 22:19:21 41° SE
Terra 3.2 22:22:47 25° ENE 22:22:54 25° ENE 22:26:44 10° NNE
Cosmos 1346 Rocket 2.8 22:24:23 62° NE 22:24:23 62° NE 22:27:52 10° NNE
Kosmos-1675 4.2 22:26:30 39° ENE 22:26:30 39° ENE 22:30:55 10° NE
SL-23 DEB 4.4 22:21:19 10° SW 22:28:36 82° SE 22:32:43 10° NE
Cosmos 489 Rocket 4.4 22:26:30 35° S 22:29:18 73° ESE 22:35:39 10° NNE
Cosmos 1992 Rocket 3.9 22:24:24 10° NNW 22:29:39 86° ENE 22:30:40 59° SSE
Cosmos 1953 Rocket 3.4 22:29:45 76° SSE 22:30:02 83° E 22:34:28 10° N
Cosmos 1943 3.6 22:32:15 11° SSW 22:37:38 61° WNW 22:43:16 10° NNE
H-2A R/B 2.6 22:38:18 39° ENE 22:38:22 39° ENE 22:43:02 10° N
Lacrosse 4 Rocket 1.4 22:39:17 71° WNW 22:39:17 71° WNW 22:43:19 10° NNE
Cosmos 2279 Rocket 4.1 22:34:27 10° N 22:40:35 55° E 22:41:33 50° ESE
SeaSat 1 3.2 22:44:08 37° SW 22:45:08 41° WSW 22:49:48 10° NW
Geosat 3.9 22:40:30 10° NNE 22:45:33 85° WNW 22:46:46 53° SSW
Cosmos 1943 Rocket 3.3 22:41:01 10° N 22:45:50 29° ENE 22:46:20 29° ENE
Meteor 1-21 4.1 22:45:51 62° SSE 22:46:52 80° E 22:52:42 10° N
SPOT 1/Viking Rocket 3.9 22:45:59 47° SSW 22:47:05 58° W 22:52:10 10° NNW
Cosmos 1900 4.4 22:45:56 45° SW 22:47:31 78° WNW 22:52:40 10° NNE
Cosmos 1932 4.3 22:47:33 60° SE 22:47:51 61° ESE 22:53:58 10° NE
Cosmos-2242 4.3 22:45:29 10° N 22:48:31 32° NE 22:48:31 32° NE
SL-24 R/B 4.5 22:47:14 10° N 22:52:10 69° E 22:52:10 69° E
DELTA 2 DEB (DPAF) 4.4 23:00:46 66° WNW 23:00:46 66° WNW 23:04:54 10° NNW
Cosmos 2180 Rocket 4.4 22:54:35 10° N 23:00:51 68° E 23:01:27 64° ESE
Cosmos 676 Rocket 4.2 23:02:01 60° SW 23:02:50 71° WNW 23:08:10 10° NNE
Cosmos 1766 4.3 22:59:08 10° N 23:01:58 45° N 23:01:58 45° N
Cosmos 1758 Rocket 4.3 23:04:11 47° W 23:04:12 47° W 23:08:26 10° N
DMSP B5D2-2 4.0 23:02:06 10° NNE 23:07:08 79° NE 23:07:08 79° NE
CARTOSAT-1 4.2 23:08:33 52° N 23:08:33 52° N 23:11:52 10° N
Cosmos 1140 Rocket 4.1 23:08:53 45° NE 23:08:53 45° NE 23:12:45 10° NNE
ARGOS 4.0 23:14:47 38° WSW 23:15:29 40° W 23:20:35 10° NNW
Cosmos 2369 Rocket 2.9 23:19:54 10° NW 23:25:13 44° WSW 23:25:15 44° WSW
ATLAS 3B R/B 4.0 23:19:08 10° WSW 23:26:21 42° NW 23:33:28 10° NNE
USA 234 3.5 23:35:50 54° SW 23:35:50 54° SW 23:42:16 10° NW
Atlas Centaur 2 3.0 23:30:19 10° W 23:38:00 64° SSW 23:38:00 64° SSW
Cosmos 1092 Rocket 4.0 23:42:22 75° NE 23:42:22 75° NE 23:48:16 10° N
Cosmos 1953 4.3 23:40:26 10° NNW 23:42:23 27° NNW 23:42:23 27° NNW
COSMOS 2406 3.6 23:51:29 59° NW 23:51:29 59° NW 23:56:54 10° NNE
Nadezhda 4 Rocket 4.3 23:53:12 60° W 23:53:25 60° W 23:59:41 10° N
